[[{"header":{"parameterUnit":"m.s-1","parameterCategory":1,"la1":30.2991,"la2":30.254,"lo1":-89.0895,"lo2":-89.0444,"dy":0.0017,"dx":0.0017,"nx":28,"ny":28,"refTime":"2025-03-06T09:00:00:Z","depth":0,"parameterNumber":2,"parameterNumberName":"U-component_of_WINDS"},"data":[0,0,0,0,0,0,0,0,0,0,0,0,0,0,0,0,0,0,0,0,0,0,0,0,0,0,0,0,0,0,0,0,0,0,0,0,0,0,0,0,0,0,0,0,0,0,0,0,0,0,0,0,0,0,0,0,0,0,2.447,2.4471,0,2.4511,2.4512,2.4512,2.4481,2.448,2.4478,2.4477,2.4518,2.452,2.4523,0,0,0,0,0,0,0,0,0,0,0,0,0,2.4364,2.4366,2.447,2.4471,2.4471,2.4511,2.4512,2.4512,2.4481,2.448,2.4478,2.4477,2.4517,2.452,2.4523,0,0,0,0,0,0,0,0,0,0,0,0,0,2.4408,2.4367,2.447,2.4461,2.446,2.4511,2.4512,2.4513,2.4482,2.448,2.4478,2.4476,2.4516,2.452,2.4523,2.4586,0,0,2.4534,2.4536,0,0,0,0,0,0,0,0,2.4406,2.4412,2.4462,2.4461,2.4461,2.4489,2.4489,2.4537,2.4482,2.4474,2.4477,2.4475,2.451,2.4514,2.4526,2.4588,2.4589,2.4534,2.4537,2.4538,2.4539,0,0,0,0,0,0,0,2.4403,2.441,2.4486,2.4462,2.4462,2.4454,2.4458,2.4498,2.4503,2.4474,2.4472,2.4477,2.451,2.4523,2.4527,2.459,2.4534,2.4537,2.454,2.4541,2.4704,2.4706,0,0,0,0,0,0,2.4401,2.4408,2.4485,2.4488,2.4428,2.4458,2.4462,2.4482,2.4502,2.4503,2.4479,2.4476,2.4518,2.4523,2.4528,2.4602,2.4538,2.4541,2.4543,2.4702,2.4705,2.4707,0,0,0,0,0,0,2.4399,2.4408,2.4484,2.4447,2.4456,2.4462,2.4484,2.4484,2.4497,2.4506,2.4506,2.4492,2.4516,2.4523,2.4572,2.4603,2.4543,2.4546,2.4699,2.4703,2.4706,2.475,0,0,0,0,0,0,2.4396,2.4407,2.4431,2.4448,2.4458,2.4527,2.4486,2.4486,2.4503,2.45,2.4518,2.4519,2.4515,2.4566,2.4575,2.4607,2.4549,2.4697,2.4701,2.4705,2.4746,2.4755,2.4762,0,0,0,0,0,2.4392,2.4442,2.4433,2.4442,2.4488,2.4528,2.4534,2.4529,2.4506,2.453,2.4536,2.4518,2.4598,2.4572,2.4581,2.4614,2.4695,2.47,2.4705,2.4742,2.4753,2.4762,0,0,0,0,0,0,2.4428,2.4444,2.4434,2.4491,2.4509,2.4523,2.4553,2.4541,2.4565,2.456,2.4553,2.4557,2.4608,2.4616,2.4586,2.4675,2.4643,2.465,2.4668,2.4678,2.4686,2.4683,2.4552,0,0,0,0,0,2.4443,2.4474,2.4486,2.4535,2.4545,2.4548,2.4565,2.456,2.4578,2.4585,2.4594,2.4612,2.4641,2.466,2.4688,2.4747,2.4751,2.4775,2.4783,2.4789,2.4795,2.4827,2.4838,2.4724,2.4723,2.4723,0,0,2.4473,2.4486,2.4506,2.4543,2.4556,2.4589,2.4554,2.459,2.4614,2.459,2.4636,2.4644,2.4663,2.4718,2.4742,2.4726,2.4828,2.4796,2.4801,2.4803,2.4833,2.4844,2.4854,2.4727,2.4726,2.4726,0,0,2.4545,2.4558,2.46,2.4614,2.4635,2.4636,2.4646,2.4663,2.4667,2.4714,2.4697,2.4725,2.4775,2.479,2.4804,2.4882,2.4867,2.4891,2.4933,2.4964,2.4973,2.4981,2.5008,2.5018,2.4897,2.4898,2.4898,0,2.458,2.4628,2.4623,2.466,2.4677,2.4658,2.47,2.4714,2.4742,2.4754,2.4736,2.4799,2.4811,2.4868,2.4887,2.4899,2.491,2.4889,2.4972,2.498,2.4987,2.5013,2.5024,2.49,2.49,2.49,2.4899,0,2.467,2.4704,2.4735,2.4764,2.4784,2.4824,2.4824,2.4845,2.4838,2.4842,2.4889,2.4903,2.4933,2.4946,2.494,2.5003,2.4992,2.4973,2.494,2.5001,2.5025,2.5035,2.4904,2.4903,2.4902,2.4902,0,0,2.4764,2.479,2.4801,2.4814,2.4836,2.4861,2.49,2.493,2.4948,2.4968,2.5,2.5044,2.5027,2.5043,2.5038,2.5066,2.5126,2.5043,2.5044,2.5058,2.5195,2.5209,2.522,2.5117,2.5119,2.512,2.5193,0,2.4836,2.4904,2.4901,2.4964,2.4995,2.4978,2.5011,2.5028,2.5033,2.506,2.5065,2.5095,2.5071,2.508,2.5107,2.5113,2.5153,2.5108,2.5146,2.5147,2.514,2.5233,2.5247,2.5315,2.5203,2.5205,2.5206,0,2.4929,2.4953,2.502,2.5037,2.505,2.508,2.5107,2.5133,2.5152,2.5153,2.5172,2.5163,2.5202,2.5168,2.5222,2.5191,2.5206,2.5212,2.5214,2.5217,2.5179,2.5237,2.5337,2.5347,2.5221,2.5219,2.5218,0,2.499,2.5039,2.5085,2.5097,2.5118,2.514,2.515,2.5167,2.5185,2.5208,2.522,2.5248,2.5262,2.5284,2.5283,2.5259,2.5337,2.5303,2.5338,2.5338,2.5354,2.5353,2.5458,2.5366,2.5366,2.5366,2.5366,0,2.507,2.5112,2.5113,2.5141,2.5187,2.5183,2.5228,2.5236,2.5251,2.528,2.5267,2.5295,2.5292,2.532,2.5319,2.5363,2.537,2.5372,2.5371,2.5372,2.5372,2.5381,2.5376,2.5369,2.5368,2.5368,2.5367,0,2.5146,2.5149,2.5198,2.5214,2.5219,2.5252,2.5266,2.5293,2.5297,2.5334,2.5342,2.5348,2.538,2.5381,2.5418,2.5418,2.5471,2.5465,2.5465,2.5463,2.5498,2.5494,2.5611,2.5626,2.5526,2.5527,2.5528,0,2.5196,2.5227,2.5248,2.5266,2.5278,2.5308,2.5327,2.5324,2.5344,2.5368,2.5392,2.5423,2.5447,2.5499,2.5507,2.5535,2.5529,2.5568,2.5533,2.5533,2.5528,2.5526,2.5529,2.5574,2.5575,2.5576,2.5577,0,2.5285,2.5285,2.5312,2.534,2.5362,2.5384,2.5404,2.542,2.542,2.5443,2.5476,2.5495,2.5533,2.5564,2.5591,2.5601,2.5589,2.5588,2.5598,2.5599,2.5597,2.5597,2.5482,2.5585,2.5585,2.5584,2.5583,2.5583,2.5349,2.5376,2.5394,2.5425,2.544,2.5459,2.5485,2.5492,2.552,2.555,2.5547,2.5584,2.5602,2.5638,2.565,2.5678,2.5665,2.5679,2.5682,2.5685,2.5688,2.5594,2.5683,2.5683,2.5683,2.5683,2.5683,0,2.5436,2.5447,2.5476,2.5504,2.5528,2.5516,2.5538,2.5559,2.5591,2.5609,2.5634,2.5672,2.5702,2.5712,2.5741,2.5761,2.5757,2.5769,2.5767,2.5769,2.5699,2.5688,2.5772,2.5772,2.5772,2.5772,2.5772,2.5772,2.5484,2.5529,2.5531,2.5583,2.5594,2.563,2.5643,2.5661,2.5675,2.5718,2.5743,2.575,2.5765,2.5795,2.5822,2.5824,2.5835,2.5849,2.5849,2.5783,2.5774,2.5766,2.5755,2.5852,2.5852,2.5917,2.5917,2.5918]},{"header":{"parameterUnit":"m.s-1","parameterCategory":1,"la1":30.2991,"la2":30.254,"lo1":-89.0895,"lo2":-89.0444,"dy":0.0017,"dx":0.0017,"nx":28,"ny":28,"refTime":"2025-03-06T09:00:00:Z","depth":0,"parameterNumber":3,"parameterNumberName":"V-component_of_WINDS"},"data":[0,0,0,0,0,0,0,0,0,0,0,0,0,0,0,0,0,0,0,0,0,0,0,0,0,0,0,0,0,0,0,0,0,0,0,0,0,0,0,0,0,0,0,0,0,0,0,0,0,0,0,0,0,0,0,0,0,0,-4.2751,-4.2754,0,-4.2969,-4.2972,-4.2974,-4.2953,-4.295,-4.2947,-4.2943,-4.3168,-4.3177,-4.3186,0,0,0,0,0,0,0,0,0,0,0,0,0,-4.2318,-4.2326,-4.2751,-4.2754,-4.2757,-4.2969,-4.2972,-4.2975,-4.2954,-4.295,-4.2946,-4.2942,-4.3165,-4.3176,-4.3186,0,0,0,0,0,0,0,0,0,0,0,0,0,-4.2518,-4.2329,-4.2751,-4.2772,-4.2776,-4.2968,-4.2972,-4.2976,-4.2955,-4.295,-4.2945,-4.294,-4.3161,-4.3174,-4.3188,-4.3374,0,0,-4.323,-4.3236,0,0,0,0,0,0,0,0,-4.2507,-4.2534,-4.2766,-4.2771,-4.2775,-4.2929,-4.2901,-4.3109,-4.2956,-4.2887,-4.2943,-4.2937,-4.3092,-4.3111,-4.3164,-4.3385,-4.3394,-4.3231,-4.3239,-4.3245,-4.3249,0,0,0,0,0,0,0,-4.2493,-4.2524,-4.2837,-4.2769,-4.2775,-4.2771,-4.2793,-4.2941,-4.3016,-4.2892,-4.2891,-4.2917,-4.3094,-4.315,-4.3169,-4.3398,-4.3231,-4.3243,-4.3251,-4.3257,-4.3783,-4.3789,0,0,0,0,0,0,-4.2474,-4.2513,-4.2831,-4.2844,-4.2626,-4.2783,-4.2808,-4.2885,-4.3014,-4.3029,-4.2922,-4.2916,-4.313,-4.3153,-4.3177,-4.3404,-4.3245,-4.3258,-4.3266,-4.3778,-4.3785,-4.3791,0,0,0,0,0,0,-4.2465,-4.2502,-4.2822,-4.2678,-4.2719,-4.2795,-4.2882,-4.2892,-4.2948,-4.3036,-4.3049,-4.2965,-4.3126,-4.3157,-4.3325,-4.3411,-4.3264,-4.3277,-4.3771,-4.378,-4.3788,-4.386,0,0,0,0,0,0,-4.2452,-4.2499,-4.257,-4.268,-4.2726,-4.2967,-4.2887,-4.29,-4.2972,-4.2966,-4.308,-4.3095,-4.3125,-4.3305,-4.3339,-4.3428,-4.3287,-4.3764,-4.3775,-4.3785,-4.385,-4.387,-4.3887,0,0,0,0,0,-4.2437,-4.2582,-4.2574,-4.2613,-4.2817,-4.2972,-4.2998,-4.303,-4.2979,-4.3051,-4.3108,-4.3091,-4.3396,-4.3322,-4.336,-4.3455,-4.3758,-4.3772,-4.3784,-4.3842,-4.3866,-4.3886,0,0,0,0,0,0,-4.2481,-4.2597,-4.2589,-4.2774,-4.2863,-4.2968,-4.3061,-4.3054,-4.316,-4.3151,-4.3185,-4.3212,-4.3381,-4.3434,-4.335,-4.3642,-4.357,-4.3592,-4.3601,-4.3625,-4.3643,-4.3627,-4.3299,0,0,0,0,0,-4.2512,-4.2628,-4.2723,-4.2877,-4.2922,-4.2984,-4.3052,-4.3069,-4.3163,-4.32,-4.3269,-4.3361,-4.3478,-4.3554,-4.3666,-4.3857,-4.3882,-4.3941,-4.3959,-4.3974,-4.3992,-4.4098,-4.4125,-4.3834,-4.3833,-4.3833,0,0,-4.2578,-4.2655,-4.2726,-4.2888,-4.2959,-4.3078,-4.3016,-4.3144,-4.3234,-4.322,-4.3383,-4.3437,-4.3542,-4.3723,-4.3806,-4.3772,-4.4078,-4.399,-4.4001,-4.4012,-4.4114,-4.4142,-4.4166,-4.3842,-4.3841,-4.3839,0,0,-4.2759,-4.2829,-4.2965,-4.3038,-4.3146,-4.3186,-4.3219,-4.3325,-4.336,-4.3524,-4.3516,-4.3623,-4.3823,-4.3899,-4.3963,-4.4173,-4.4162,-4.4208,-4.4305,-4.4408,-4.4431,-4.4451,-4.4528,-4.4554,-4.4226,-4.4226,-4.4226,0,-4.2828,-4.3007,-4.3036,-4.3167,-4.3239,-4.3231,-4.337,-4.3439,-4.3578,-4.3628,-4.3588,-4.384,-4.391,-4.4109,-4.416,-4.4212,-4.4251,-4.4196,-4.4425,-4.4446,-4.4466,-4.4539,-4.4567,-4.4231,-4.4231,-4.423,-4.423,0,-4.3086,-4.3211,-4.3308,-4.3443,-4.3525,-4.3659,-4.371,-4.379,-4.3799,-4.3843,-4.4011,-4.4095,-4.4224,-4.4272,-4.4282,-4.4473,-4.4449,-4.4417,-4.4346,-4.4498,-4.4567,-4.4595,-4.4239,-4.4237,-4.4235,-4.4234,0,0,-4.3303,-4.3452,-4.3487,-4.3548,-4.3667,-4.3764,-4.3898,-4.4024,-4.4093,-4.4189,-4.4303,-4.4472,-4.4443,-4.4517,-4.4535,-4.4625,-4.4788,-4.4582,-4.4585,-4.4619,-4.5004,-4.5029,-4.5061,-4.4781,-4.4786,-4.479,-4.4996,0,-4.3497,-4.3734,-4.3764,-4.3975,-4.4091,-4.4085,-4.4202,-4.4287,-4.4332,-4.4438,-4.4487,-4.4607,-4.4559,-4.4604,-4.4693,-4.4749,-4.4866,-4.4735,-4.4888,-4.4893,-4.4864,-4.5097,-4.5124,-4.5314,-4.5023,-4.5028,-4.5031,0,-4.3756,-4.3859,-4.4081,-4.4184,-4.4234,-4.4338,-4.4457,-4.4557,-4.4654,-4.4681,-4.4763,-4.477,-4.4909,-4.4831,-4.5024,-4.4934,-4.4998,-4.5036,-4.5044,-4.5061,-4.4973,-4.5122,-4.5375,-4.5404,-4.5074,-4.507,-4.5067,0,-4.3893,-4.4087,-4.4245,-4.4298,-4.4422,-4.4495,-4.4551,-4.4643,-4.4717,-4.482,-4.4869,-4.4987,-4.5053,-4.5144,-4.5184,-4.5123,-4.5375,-4.53,-4.5402,-4.5401,-4.5456,-4.5453,-4.5725,-4.5495,-4.5495,-4.5494,-4.5493,0,-4.4108,-4.4244,-4.4309,-4.4406,-4.4559,-4.4593,-4.4743,-4.4796,-4.4878,-4.4986,-4.4987,-4.5089,-4.5134,-4.5243,-4.5274,-4.543,-4.5459,-4.5485,-4.5492,-4.5486,-4.5483,-4.553,-4.5518,-4.5502,-4.55,-4.5499,-4.5497,0,-4.4288,-4.4336,-4.4509,-4.4611,-4.464,-4.4749,-4.4837,-4.4932,-4.4975,-4.5112,-4.5146,-4.5215,-4.5343,-4.5391,-4.5547,-4.5568,-4.5749,-4.5744,-4.5716,-4.5718,-4.5818,-4.5809,-4.6132,-4.6177,-4.5915,-4.5918,-4.592,0,-4.4422,-4.4527,-4.4641,-4.4713,-4.4771,-4.4887,-4.4963,-4.5,-4.5078,-4.5197,-4.5278,-4.5405,-4.5509,-4.5714,-4.5779,-4.5898,-4.5898,-4.6003,-4.5916,-4.5907,-4.5901,-4.5895,-4.5907,-4.6019,-4.6022,-4.6024,-4.6026,0,-4.4656,-4.4675,-4.4784,-4.4902,-4.4992,-4.5086,-4.5178,-4.5237,-4.5288,-4.5377,-4.5507,-4.5588,-4.5747,-4.5874,-4.5997,-4.6054,-4.605,-4.6052,-4.6083,-4.6078,-4.6059,-4.6072,-4.5762,-4.6045,-4.6043,-4.6042,-4.6041,-4.604,-4.4819,-4.4912,-4.5007,-4.5129,-4.5201,-4.5287,-4.5381,-4.5436,-4.5546,-4.5679,-4.5693,-4.5834,-4.5929,-4.6094,-4.6156,-4.6268,-4.6239,-4.6283,-4.6294,-4.6305,-4.6313,-4.6039,-4.629,-4.6289,-4.6289,-4.6288,-4.6288,0,-4.5055,-4.5115,-4.5226,-4.5355,-4.545,-4.5436,-4.5537,-4.5618,-4.5742,-4.5831,-4.5933,-4.6084,-4.6207,-4.6281,-4.6404,-4.6479,-4.648,-4.6511,-4.6507,-4.652,-4.633,-4.6292,-4.6508,-4.6508,-4.6508,-4.6508,-4.6508,-4.6508,-4.5189,-4.5346,-4.5376,-4.557,-4.563,-4.5768,-4.5827,-4.5906,-4.5977,-4.6145,-4.6248,-4.6294,-4.6378,-4.6507,-4.662,-4.6639,-4.6685,-4.6718,-4.6735,-4.6556,-4.6533,-4.6512,-4.6477,-4.6727,-4.6728,-4.6916,-4.6917,-4.6919]}]]